STARLINK-11584, 63106

Orbit data source: Space-Track

STARLINK-11584, 63106 is a payload satellite owned by SpaceX/Seattle (US) in LEO that was launched on Thu, 27 Feb 2025 UTC via an FALCON 9 launch vehicle from the Air Force Eastern Test Range (AFETR). Payload-class satellites include a variety of spacecraft equipped with specific instruments for various scientific and technological missions. These include communications satellites like Starlink; space stations such as the ISS; scientific satellites like the Hubble; Earth observation satellites from companies like Planet Labs, Umbra, and HawkEye 360; GPS; miniature CubeSats for education and research; and military/defense satellites.

Loading next visibility...
Identifier
63106, 2025-039C
Orbit
LEO
Last TLE update
16 hours ago
Origin
Manufacturer
SpaceX/Seattle
Mission
Operational Commercial Communications
Bus & Motor
STARLINK V2M, Unknown motor
Mass
730 kg wet, ~700 kg dry
Launch date (UTC)
2025-02-27 (2 months ago)
Launch vehicle
FALCON 9
Launch site
Air Force Eastern Test Range (AFETR)
Object type
Payload
Rocket body
Debris
Shape & HBR
Box + 2 Pan, 29 m
Radar Cross Section
36.964 m², Large (>1 m²)

Expand to show TLE details & history

TLE from 16 hours ago
0 STARLINK-11584
1 63106U 25039C   25128.60687022 -.00000614  00000-0 -65996-6 0  9998
2 63106  42.9994 277.5963 0001858 273.0460  87.0198 15.77857293 11614
Epoch: 2025-05-08T14:33Z
Definitive object data (Epoch: 2025-05-08T14:33:53.587Z)
Latitude
0.00003°
Longitude
-167.55189°
Altitude
336.218 km
Speed
7.709 km/s
True Right ascension
18h 30m 23s
True Declination
0° 00' 00"
Sunlit
Object was in full shadow at TLE epoch
Visualization TLE readout
Latitude
2.37705°
Longitude
5.86465°
Altitude
336.249 km
Speed
7.709 km/s
Apparent Right ascension
04h 38m 36s
Apparent Declination
-19° 52' 43"
Sunlit
Object is in daylight
Visualization observer readout
Local Sidereal Time
14:38:54
Azimuth
299.202° NW
Elevation
-57.492°
Doppler factor
1
Orbital elements
Apogee altitude
339.748 km
Perigee altitude
337.252 km
Semi-major axis
6,716.637 km
Eccentricity
0.0001858
Inclination
42.9994°
RAAN
277.5963°
Arg. of periapsis
273.046°
True anomaly
87.04106°
Mean anomaly
87.0198°
Eccentric anomaly
87.03043°
Mean motion
3.9429 °/min
BSTAR
-6.5996e-7
Orbital period
91.3 mins
Loading maneuver chart data...
Loading SW <> Apogee altitude chart data...
Loading historical data...
Loading historical data...
Loading historical data...
Loading historical data...
Loading historical data...
Loading historical data...
Loading historical data...

STARLINK-11584 Visibility forecast

Observer location: undefined°, undefined°

Span
Click to sort rows by Start time (UTC) header in descending order
Start Az.
Max El. time (UTC)
Max El. Az.
Max El.
End time (UTC)
End Az.
5 mins2025-05-09 13:35:04.189Z230.956° WSW2025-05-09 13:37:04.189Z180.555° SSW36.907°2025-05-09 13:40:04.189Z78.487° E
4 mins2025-05-09 18:23:04.189Z265.88° W2025-05-09 18:25:04.189Z176.794° S30.29°2025-05-09 18:27:04.189Z135.866° SSE
|